Preview of NWS' New Version of Forecast
This preview is not operational and should not be used for support decisions.

Regional Weather Roundup (RWR)

Issued by National Weather Service (NWS)

                            
000
ASUS44 KJAN 211310
RWRMS 

MISSISSIPPI HOURLY WEATHER ROUNDUP
NATIONAL WEATHER SERVICE JACKSON MS
800 AM CDT SUN APR 21 2019

NOTE: "FAIR: INDICATES FEW OR NO CLOUDS BELOW 12,000 FEET WITH NO
SIGNIFICANT WEATHER AND/OR OBSTRUCTIONS TO VISIBILITY.

MSZ001>002-007>008-010>013-018>021-025>028-034>036-211400-
NORTHWEST MISSISSIPPI
  
CITY           SKY/WX    TMP DP  RH WIND       PRES   REMARKS
BATESVILLE       N/A     48  46  93 CALM      30.10R                  
CLARKSDALE     SUNNY     57  52  82 SE6       30.09R                  
CLEVELAND      FAIR      55  47  74 S8        30.09R                  
GREENWOOD      FAIR      53  47  79 CALM      30.11R                  
GREENVILLE     FAIR      55  49  80 S7        30.08R                  
OLIVE BRANCH   SUNNY     52  48  87 S7        30.08R                  
OXFORD         FAIR      52  46  82 CALM      30.11R                  
TUNICA           N/A     52  46  82 S6        30.09R                  
WINONA         FAIR      46  46  98 CALM      30.12R                  
$$

MSZ003>006-009-014>017-022>024-029>033-037>039-211400-
NORTHEAST MISSISSIPPI
  
CITY           SKY/WX    TMP DP  RH WIND       PRES   REMARKS
ABERDEEN       FAIR      48  48 100 CALM      30.13R                  
COLUMBUS AFB   FAIR      50  45  82 CALM      30.11R                  
CORINTH        FAIR      50  41  71 SE6       30.10R                  
GOLDN TRIANGLE FAIR      52  44  74 CALM      30.13R                  
STARKVILLE     FAIR      50  46  87 CALM      30.13R                  
TUPELO         FAIR      50  44  80 CALM      30.11R                  
$$

MSZ040-058-211400-
CENTRAL MISSISSIPPI
  
CITY           SKY/WX    TMP DP  RH WIND       PRES   REMARKS
JACKSON INTL   FAIR      53  45  74 S5        30.13R                  
JACKSON HAWKNS FAIR      53  48  83 CALM      30.12R                  
MADISON        FAIR      52  50  93 CALM      30.12R                  
MERIDIAN KEY   FAIR      49  44  83 CALM      30.14R                  
MERIDIAN NAS   FAIR      51  46  83 CALM      30.14R                  
RAYMOND          N/A     52  52 100 CALM      30.12R                  
VICKSBURG VKS  SUNNY     54  50  87 CALM      30.12R                  
$$

MSZ059>079-211400-
SOUTH MISSISSIPPI
  
CITY           SKY/WX    TMP DP  RH WIND       PRES   REMARKS
HATTIESBURG    FAIR      49  45  86 CALM      30.16R                  
LAUREL         SUNNY     50  46  88 CALM      30.15R                  
MCCOMB         FAIR      52  47  83 CALM      30.14R                  
NATCHEZ        FAIR      55  52  89 S3        30.13R                  
PINE BELT      FAIR      52  48  86 CALM      30.16R                  
$$

MSZ080>082-211400-
COASTAL MISSISSIPPI
  
CITY           SKY/WX    TMP DP  RH WIND       PRES   REMARKS
BILOXI         FAIR      57  44  63 CALM      30.14R                  
PASCAGOULA     FAIR      55  49  80 CALM      30.15R                  
GULFPORT       FAIR      56  47  71 CALM      30.14R                  
$$

LAZ007>009-015>016-023>026-211400-
NORTHEAST LOUISIANA
  
CITY           SKY/WX    TMP DP  RH WIND       PRES   REMARKS
BASTROP        FAIR      56  50  81 CALM      30.09R                  
TALLULAH/VBURG FAIR      56  50  80 SE3       30.11R                  
VIDALIA        FAIR      57  54  89 SE3       30.11R                  
$$